Precipitable_Water
1.37 1.27 1.36 1.44 1.50 1.64 1.77 1.70 1.69 1.63 1.59 1.52 1.50 1.45 1.43 1.42 1.39 1.36 1.38 1.38 1.39 1.38 1.42 1.45 1.48 1.51 1.51 1.52 1.54 1.55 1.58 1.62 1.64 1.65 1.69 1.76 1.84 1.88 1.90 1.92 1.92 1.92 1.89 1.90 1.89 1.84 1.80 1.74 1.69 1.66 1.62 1.58 1.48 1.35 1.25 1.19 1.20 1.25 1.31 1.34 1.37 1.39 1.37 1.36 1.34 1.30 1.38 1.54 1.63 1.67 1.68 1.70 1.75 1.79 1.83 1.87 2.00 1.96 1.85 1.83 1.88 1.91 1.88 1.84 1.79
1.34 1.34 1.41 1.48 1.56 1.71 1.71 1.67 1.63 1.62 1.57 1.50 1.52 1.49 1.43 1.42 1.40 1.37 1.35 1.36 1.36 1.39 1.41 1.41 1.46 1.50 1.52 1.52 1.55 1.56 1.58 1.60 1.63 1.64 1.68 1.73 1.80 1.86 1.89 1.91 1.90 1.90 1.90 1.90 1.88 1.80 1.81 1.74 1.72 1.70 1.65 1.63 1.57 1.45 1.37 1.30 1.23 1.28 1.30 1.32 1.36 1.39 1.35 1.35 1.37 1.28 1.25 1.35 1.53 1.63 1.66 1.64 1.68 1.71 1.78 1.84 1.87 1.89 1.84 1.85 1.84 1.83 1.83 1.87 1.82
1.37 1.42 1.48 1.56 1.63 1.66 1.61 1.61 1.57 1.57 1.56 1.51 1.54 1.51 1.49 1.47 1.42 1.39 1.38 1.36 1.36 1.41 1.41 1.40 1.45 1.48 1.51 1.52 1.53 1.58 1.58 1.61 1.62 1.65 1.66 1.72 1.76 1.80 1.84 1.87 1.88 1.89 1.90 1.88 1.85 1.84 1.77 1.73 1.73 1.73 1.70 1.67 1.63 1.54 1.49 1.43 1.33 1.30 1.31 1.31 1.34 1.39 1.35 1.34 1.32 1.24 1.21 1.23 1.30 1.44 1.58 1.67 1.71 1.72 1.80 1.80 1.76 1.68 1.71 1.86 1.84 1.85 1.83 1.85 1.83
1.48 1.51 1.52 1.56 1.57 1.55 1.53 1.53 1.54 1.56 1.56 1.52 1.52 1.52 1.50 1.51 1.51 1.49 1.46 1.43 1.41 1.41 1.46 1.44 1.43 1.45 1.48 1.48 1.53 1.56 1.57 1.60 1.59 1.61 1.66 1.69 1.74 1.79 1.80 1.82 1.83 1.86 1.89 1.89 1.87 1.84 1.81 1.76 1.75 1.73 1.74 1.72 1.69 1.61 1.53 1.50 1.43 1.36 1.33 1.33 1.35 1.39 1.40 1.34 1.30 1.22 1.17 1.18 1.22 1.30 1.38 1.41 1.46 1.53 1.65 1.59 1.54 1.65 1.76 1.83 1.86 1.85 1.86 1.88 1.85
1.58 1.56 1.51 1.48 1.48 1.47 1.46 1.50 1.54 1.56 1.57 1.56 1.54 1.51 1.50 1.51 1.51 1.53 1.48 1.47 1.44 1.46 1.50 1.50 1.44 1.42 1.44 1.45 1.50 1.52 1.57 1.59 1.58 1.60 1.62 1.66 1.72 1.77 1.79 1.79 1.79 1.81 1.84 1.88 1.89 1.89 1.85 1.82 1.79 1.76 1.75 1.75 1.74 1.67 1.60 1.55 1.51 1.45 1.37 1.35 1.35 1.39 1.44 1.38 1.30 1.24 1.21 1.16 1.18 1.24 1.31 1.37 1.42 1.49 1.47 1.49 1.52 1.66 1.75 1.79 1.80 1.83 1.87 1.88 1.86
1.59 1.53 1.46 1.42 1.42 1.43 1.44 1.47 1.55 1.58 1.60 1.58 1.53 1.52 1.50 1.50 1.48 1.47 1.45 1.45 1.43 1.44 1.41 1.39 1.43 1.43 1.41 1.42 1.46 1.47 1.52 1.55 1.55 1.57 1.62 1.63 1.69 1.73 1.76 1.76 1.76 1.78 1.79 1.82 1.86 1.87 1.90 1.86 1.82 1.78 1.76 1.77 1.78 1.74 1.66 1.59 1.56 1.51 1.44 1.38 1.36 1.38 1.42 1.40 1.32 1.25 1.22 1.21 1.28 1.31 1.33 1.35 1.36 1.39 1.34 1.34 1.49 1.57 1.66 1.74 1.75 1.80 1.84 1.88 1.85
1.59 1.48 1.39 1.39 1.37 1.39 1.43 1.48 1.55 1.60 1.58 1.59 1.55 1.53 1.51 1.48 1.49 1.40 1.41 1.44 1.44 1.42 1.36 1.31 1.32 1.33 1.37 1.41 1.42 1.47 1.53 1.51 1.54 1.55 1.59 1.63 1.65 1.67 1.71 1.71 1.72 1.72 1.75 1.80 1.80 1.81 1.86 1.88 1.84 1.81 1.78 1.79 1.78 1.77 1.72 1.66 1.60 1.56 1.50 1.44 1.38 1.37 1.42 1.43 1.35 1.25 1.21 1.25 1.35 1.37 1.40 1.46 1.50 1.46 1.36 1.40 1.48 1.52 1.56 1.65 1.75 1.79 1.80 1.86 1.83
1.55 1.47 1.38 1.41 1.40 1.40 1.43 1.50 1.56 1.59 1.58 1.59 1.58 1.50 1.50 1.48 1.48 1.43 1.35 1.36 1.39 1.34 1.33 1.28 1.29 1.30 1.36 1.40 1.45 1.49 1.50 1.51 1.51 1.53 1.60 1.65 1.63 1.64 1.67 1.68 1.68 1.68 1.71 1.75 1.78 1.79 1.80 1.85 1.85 1.82 1.82 1.80 1.80 1.80 1.76 1.72 1.66 1.60 1.56 1.51 1.43 1.38 1.41 1.44 1.37 1.26 1.22 1.30 1.36 1.35 1.40 1.46 1.45 1.41 1.40 1.37 1.40 1.45 1.51 1.56 1.63 1.74 1.81 1.86 1.79
1.52 1.47 1.45 1.45 1.44 1.43 1.45 1.50 1.57 1.57 1.56 1.57 1.55 1.56 1.52 1.47 1.46 1.48 1.41 1.37 1.37 1.34 1.32 1.31 1.30 1.34 1.39 1.41 1.47 1.51 1.51 1.51 1.53 1.55 1.62 1.64 1.63 1.63 1.65 1.65 1.67 1.70 1.71 1.73 1.75 1.77 1.79 1.82 1.83 1.81 1.82 1.81 1.82 1.81 1.79 1.78 1.72 1.66 1.61 1.57 1.50 1.42 1.41 1.46 1.40 1.26 1.23 1.33 1.33 1.34 1.36 1.37 1.31 1.31 1.30 1.30 1.32 1.34 1.41 1.47 1.52 1.59 1.69 1.73 1.76
1.49 1.50 1.50 1.50 1.49 1.47 1.46 1.50 1.54 1.55 1.54 1.55 1.54 1.58 1.55 1.49 1.41 1.45 1.45 1.40 1.37 1.36 1.36 1.34 1.32 1.33 1.38 1.43 1.49 1.53 1.54 1.55 1.57 1.62 1.62 1.60 1.61 1.62 1.64 1.66 1.68 1.68 1.70 1.72 1.75 1.76 1.76 1.79 1.78 1.79 1.80 1.83 1.82 1.81 1.82 1.81 1.76 1.71 1.67 1.63 1.56 1.48 1.42 1.46 1.42 1.29 1.24 1.29 1.31 1.32 1.34 1.34 1.33 1.31 1.28 1.25 1.24 1.23 1.27 1.35 1.42 1.49 1.57 1.66 1.70
1.48 1.51 1.49 1.50 1.51 1.51 1.50 1.54 1.54 1.51 1.51 1.52 1.53 1.56 1.54 1.50 1.44 1.41 1.45 1.45 1.39 1.40 1.41 1.39 1.36 1.37 1.39 1.44 1.48 1.52 1.56 1.59 1.61 1.62 1.61 1.61 1.61 1.63 1.66 1.66 1.66 1.67 1.66 1.68 1.72 1.74 1.75 1.76 1.74 1.75 1.76 1.81 1.82 1.81 1.83 1.84 1.79 1.74 1.71 1.67 1.62 1.54 1.45 1.45 1.44 1.33 1.25 1.28 1.30 1.35 1.33 1.38 1.36 1.33 1.30 1.25 1.23 1.23 1.25 1.29 1.35 1.42 1.53 1.59 1.66
1.45 1.49 1.51 1.54 1.53 1.55 1.55 1.58 1.55 1.51 1.48 1.46 1.48 1.51 1.48 1.45 1.46 1.44 1.42 1.43 1.47 1.45 1.47 1.42 1.40 1.39 1.39 1.45 1.48 1.50 1.53 1.56 1.57 1.59 1.60 1.60 1.61 1.65 1.63 1.65 1.63 1.64 1.65 1.66 1.68 1.70 1.71 1.73 1.73 1.72 1.70 1.75 1.81 1.79 1.81 1.85 1.82 1.77 1.72 1.70 1.65 1.60 1.50 1.47 1.46 1.39 1.28 1.30 1.33 1.35 1.32 1.38 1.39 1.36 1.33 1.30 1.27 1.28 1.30 1.32 1.36 1.44 1.51 1.61 1.66
1.41 1.50 1.54 1.57 1.59 1.60 1.57 1.55 1.56 1.53 1.47 1.45 1.51 1.51 1.52 1.48 1.46 1.46 1.39 1.34 1.35 1.45 1.44 1.42 1.31 1.25 1.34 1.38 1.42 1.50 1.52 1.52 1.48 1.52 1.56 1.61 1.65 1.61 1.61 1.59 1.58 1.58 1.60 1.63 1.62 1.64 1.66 1.70 1.70 1.70 1.68 1.68 1.76 1.78 1.79 1.85 1.83 1.79 1.75 1.72 1.68 1.64 1.55 1.50 1.47 1.43 1.33 1.29 1.31 1.35 1.32 1.36 1.43 1.43 1.40 1.38 1.36 1.36 1.42 1.44 1.45 1.51 1.57 1.63 1.65
1.46 1.54 1.57 1.57 1.57 1.57 1.55 1.53 1.56 1.54 1.52 1.52 1.52 1.52 1.50 1.47 1.44 1.35 1.41 1.33 1.30 1.41 1.45 1.36 1.23 1.19 1.17 1.25 1.31 1.44 1.49 1.46 1.50 1.53 1.56 1.60 1.61 1.58 1.58 1.53 1.51 1.54 1.61 1.61 1.59 1.62 1.64 1.68 1.68 1.65 1.65 1.65 1.69 1.74 1.76 1.81 1.82 1.80 1.77 1.70 1.69 1.67 1.58 1.52 1.49 1.46 1.40 1.30 1.28 1.32 1.34 1.33 1.40 1.47 1.48 1.46 1.44 1.44 1.47 1.52 1.55 1.60 1.59 1.57 1.61
1.45 1.50 1.51 1.56 1.59 1.59 1.57 1.58 1.56 1.57 1.51 1.47 1.46 1.43 1.45 1.44 1.42 1.32 1.31 1.40 1.37 1.46 1.43 1.40 1.21 1.32 1.36 1.20 1.18 1.13 1.31 1.39 1.52 1.54 1.57 1.56 1.56 1.54 1.54 1.52 1.53 1.56 1.59 1.59 1.57 1.58 1.61 1.65 1.65 1.62 1.61 1.61 1.65 1.68 1.73 1.79 1.81 1.80 1.77 1.72 1.68 1.69 1.62 1.54 1.51 1.48 1.47 1.32 1.27 1.29 1.35 1.36 1.37 1.44 1.51 1.52 1.52 1.50 1.51 1.53 1.56 1.58 1.58 1.60 1.62
1.39 1.43 1.49 1.57 1.61 1.62 1.66 1.62 1.56 1.58 1.52 1.43 1.42 1.39 1.40 1.40 1.43 1.46 1.43 1.27 1.31 1.32 1.49 1.45 1.38 1.33 1.16 1.17 1.15 1.16 1.08 1.21 1.30 1.47 1.54 1.52 1.52 1.50 1.56 1.55 1.56 1.57 1.59 1.58 1.56 1.58 1.61 1.63 1.59 1.58 1.58 1.59 1.63 1.65 1.69 1.76 1.80 1.81 1.79 1.73 1.66 1.68 1.65 1.58 1.54 1.49 1.48 1.38 1.26 1.24 1.31 1.37 1.38 1.41 1.46 1.52 1.55 1.54 1.51 1.50 1.54 1.57 1.60 1.62 1.63
1.41 1.44 1.48 1.56 1.65 1.68 1.67 1.65 1.60 1.58 1.55 1.47 1.42 1.42 1.44 1.45 1.49 1.48 1.44 1.34 1.26 1.31 1.41 1.50 1.49 1.54 1.34 1.19 1.13 1.10 1.13 1.24 1.29 1.35 1.45 1.46 1.51 1.53 1.55 1.57 1.57 1.57 1.59 1.62 1.63 1.60 1.60 1.60 1.60 1.60 1.59 1.61 1.64 1.65 1.67 1.74 1.79 1.79 1.80 1.75 1.65 1.66 1.66 1.63 1.60 1.56 1.48 1.43 1.31 1.24 1.24 1.31 1.37 1.39 1.44 1.45 1.47 1.49 1.50 1.50 1.50 1.52 1.54 1.55 1.54
1.42 1.47 1.52 1.61 1.65 1.68 1.69 1.68 1.63 1.58 1.54 1.51 1.49 1.47 1.46 1.45 1.49 1.48 1.44 1.48 1.38 1.33 1.33 1.55 1.60 1.60 1.55 1.48 1.39 1.19 1.17 1.27 1.24 1.09 1.42 1.51 1.52 1.52 1.52 1.57 1.61 1.60 1.61 1.62 1.59 1.56 1.58 1.57 1.60 1.61 1.61 1.61 1.64 1.62 1.62 1.67 1.75 1.77 1.77 1.75 1.65 1.66 1.65 1.66 1.61 1.64 1.56 1.46 1.37 1.29 1.22 1.21 1.29 1.37 1.37 1.40 1.44 1.47 1.47 1.48 1.49 1.49 1.50 1.49 1.50
1.40 1.51 1.57 1.64 1.64 1.64 1.65 1.63 1.60 1.56 1.57 1.54 1.49 1.46 1.47 1.47 1.51 1.46 1.46 1.48 1.46 1.33 1.34 1.41 1.51 1.56 1.58 1.57 1.54 1.52 1.47 1.30 1.16 1.26 1.16 1.35 1.49 1.48 1.50 1.55 1.55 1.58 1.61 1.63 1.65 1.62 1.60 1.59 1.58 1.59 1.58 1.60 1.61 1.61 1.60 1.64 1.71 1.73 1.74 1.71 1.65 1.66 1.65 1.66 1.61 1.64 1.63 1.54 1.43 1.35 1.27 1.20 1.19 1.27 1.35 1.36 1.33 1.35 1.39 1.42 1.43 1.43 1.44 1.46 1.45
1.39 1.48 1.55 1.57 1.55 1.55 1.59 1.58 1.56 1.57 1.58 1.55 1.50 1.50 1.49 1.49 1.50 1.49 1.50 1.52 1.48 1.37 1.35 1.43 1.36 1.41 1.53 1.48 1.49 1.50 1.49 1.46 1.45 1.33 1.26 1.16 1.25 1.48 1.56 1.54 1.55 1.58 1.61 1.63 1.64 1.63 1.61 1.60 1.55 1.54 1.54 1.55 1.58 1.59 1.59 1.60 1.67 1.72 1.71 1.68 1.63 1.64 1.65 1.66 1.63 1.61 1.64 1.60 1.55 1.43 1.34 1.26 1.18 1.17 1.24 1.35 1.37 1.33 1.30 1.28 1.30 1.31 1.32 1.32 1.31
1.38 1.42 1.46 1.46 1.46 1.46 1.53 1.56 1.58 1.58 1.60 1.58 1.55 1.52 1.47 1.44 1.45 1.45 1.45 1.49 1.52 1.53 1.49 1.50 1.53 1.46 1.46 1.48 1.48 1.44 1.45 1.49 1.51 1.49 1.34 1.24 1.23 1.27 1.31 1.47 1.52 1.56 1.57 1.61 1.64 1.64 1.59 1.57 1.55 1.53 1.53 1.53 1.56 1.59 1.59 1.61 1.62 1.65 1.69 1.65 1.58 1.62 1.64 1.66 1.65 1.61 1.61 1.63 1.58 1.54 1.44 1.32 1.23 1.17 1.15 1.19 1.28 1.33 1.31 1.28 1.26 1.26 1.26 1.27 1.27
1.30 1.36 1.38 1.39 1.41 1.46 1.52 1.55 1.56 1.58 1.58 1.57 1.57 1.54 1.53 1.51 1.52 1.53 1.55 1.53 1.63 1.65 1.62 1.62 1.62 1.61 1.55 1.49 1.40 1.42 1.42 1.44 1.46 1.44 1.44 1.41 1.23 1.24 1.33 1.31 1.25 1.41 1.55 1.57 1.59 1.61 1.57 1.53 1.52 1.53 1.53 1.53 1.55 1.59 1.60 1.61 1.63 1.61 1.64 1.59 1.55 1.59 1.61 1.63 1.64 1.64 1.60 1.61 1.61 1.57 1.56 1.47 1.29 1.21 1.16 1.13 1.13 1.21 1.29 1.32 1.31 1.33 1.34 1.34 1.35
1.25 1.31 1.34 1.39 1.41 1.47 1.52 1.54 1.57 1.59 1.58 1.55 1.54 1.57 1.59 1.57 1.57 1.59 1.59 1.60 1.64 1.67 1.66 1.67 1.64 1.59 1.55 1.51 1.45 1.42 1.38 1.34 1.38 1.43 1.40 1.34 1.29 1.30 1.36 1.40 1.34 1.32 1.48 1.57 1.59 1.59 1.55 1.52 1.49 1.49 1.51 1.53 1.53 1.57 1.60 1.60 1.63 1.60 1.56 1.55 1.51 1.56 1.59 1.61 1.62 1.63 1.61 1.58 1.60 1.59 1.61 1.58 1.51 1.33 1.21 1.18 1.15 1.11 1.11 1.21 1.30 1.30 1.33 1.37 1.42
1.25 1.29 1.34 1.40 1.44 1.49 1.55 1.55 1.56 1.58 1.55 1.55 1.56 1.61 1.67 1.68 1.66 1.63 1.63 1.67 1.69 1.65 1.62 1.57 1.58 1.57 1.56 1.56 1.52 1.52 1.51 1.47 1.50 1.49 1.45 1.41 1.36 1.31 1.33 1.40 1.40 1.41 1.50 1.56 1.61 1.56 1.52 1.49 1.51 1.51 1.53 1.54 1.54 1.57 1.59 1.59 1.62 1.60 1.55 1.48 1.47 1.49 1.55 1.59 1.60 1.60 1.60 1.56 1.58 1.58 1.59 1.62 1.60 1.53 1.41 1.24 1.19 1.16 1.12 1.09 1.13 1.25 1.34 1.37 1.37
1.24 1.28 1.35 1.42 1.48 1.49 1.52 1.51 1.51 1.54 1.54 1.54 1.55 1.61 1.66 1.66 1.64 1.61 1.63 1.62 1.62 1.61 1.56 1.54 1.56 1.51 1.51 1.57 1.55 1.54 1.51 1.57 1.57 1.54 1.54 1.50 1.43 1.32 1.40 1.46 1.30 1.34 1.49 1.53 1.45 1.52 1.53 1.53 1.54 1.56 1.56 1.60 1.63 1.61 1.60 1.59 1.58 1.58 1.54 1.46 1.43 1.45 1.48 1.54 1.57 1.57 1.59 1.56 1.54 1.55 1.56 1.59 1.61 1.61 1.57 1.47 1.29 1.17 1.14 1.11 1.08 1.08 1.11 1.23 1.36
1.26 1.29 1.38 1.45 1.48 1.53 1.56 1.54 1.54 1.54 1.55 1.55 1.56 1.57 1.59 1.58 1.57 1.56 1.57 1.63 1.64 1.62 1.59 1.60 1.60 1.60 1.59 1.53 1.52 1.52 1.56 1.61 1.61 1.60 1.55 1.50 1.46 1.43 1.40 1.44 1.45 1.39 1.50 1.50 1.53 1.41 1.47 1.55 1.63 1.65 1.62 1.62 1.66 1.68 1.63 1.63 1.60 1.55 1.53 1.49 1.42 1.43 1.44 1.48 1.52 1.53 1.53 1.56 1.53 1.53 1.53 1.54 1.56 1.58 1.60 1.57 1.52 1.40 1.22 1.14 1.11 1.09 1.06 1.05 1.07
1.30 1.40 1.48 1.48 1.49 1.54 1.56 1.54 1.54 1.55 1.57 1.57 1.57 1.58 1.59 1.60 1.60 1.60 1.59 1.60 1.59 1.60 1.60 1.60 1.58 1.59 1.58 1.56 1.56 1.58 1.61 1.66 1.67 1.64 1.67 1.65 1.61 1.58 1.50 1.34 1.36 1.43 1.39 1.48 1.48 1.45 1.41 1.51 1.62 1.68 1.72 1.68 1.66 1.67 1.68 1.66 1.65 1.60 1.55 1.53 1.47 1.43 1.44 1.46 1.48 1.48 1.48 1.50 1.50 1.52 1.52 1.52 1.53 1.55 1.57 1.58 1.57 1.56 1.51 1.37 1.25 1.17 1.10 1.06 1.04
1.41 1.46 1.52 1.53 1.50 1.49 1.52 1.51 1.53 1.57 1.59 1.59 1.59 1.59 1.63 1.61 1.58 1.55 1.49 1.58 1.54 1.54 1.57 1.58 1.55 1.55 1.55 1.60 1.58 1.58 1.67 1.70 1.71 1.71 1.73 1.75 1.73 1.70 1.61 1.51 1.35 1.24 1.36 1.33 1.41 1.41 1.54 1.46 1.58 1.67 1.73 1.77 1.77 1.74 1.77 1.76 1.71 1.65 1.60 1.56 1.49 1.44 1.44 1.44 1.45 1.46 1.46 1.46 1.48 1.51 1.50 1.51 1.52 1.53 1.54 1.57 1.58 1.58 1.57 1.56 1.51 1.39 1.29 1.21 1.16
1.47 1.49 1.49 1.52 1.51 1.50 1.50 1.50 1.52 1.56 1.56 1.56 1.58 1.60 1.60 1.56 1.50 1.47 1.44 1.52 1.51 1.49 1.52 1.49 1.51 1.54 1.53 1.56 1.58 1.62 1.67 1.74 1.74 1.74 1.75 1.76 1.75 1.71 1.67 1.54 1.49 1.32 1.24 1.23 1.35 1.32 1.45 1.55 1.41 1.56 1.71 1.76 1.76 1.79 1.78 1.79 1.77 1.72 1.65 1.59 1.53 1.49 1.46 1.45 1.45 1.46 1.44 1.43 1.48 1.52 1.53 1.51 1.50 1.51 1.53 1.54 1.56 1.59 1.61 1.59 1.59 1.58 1.52 1.41 1.32
1.53 1.51 1.48 1.46 1.46 1.49 1.49 1.49 1.51 1.54 1.53 1.54 1.54 1.55 1.56 1.52 1.49 1.46 1.47 1.50 1.48 1.49 1.49 1.50 1.51 1.54 1.54 1.56 1.59 1.56 1.64 1.64 1.64 1.68 1.66 1.65 1.66 1.67 1.64 1.62 1.58 1.40 1.38 1.29 1.31 1.45 1.41 1.54 1.57 1.52 1.66 1.69 1.74 1.76 1.79 1.78 1.79 1.77 1.71 1.65 1.58 1.56 1.54 1.51 1.51 1.49 1.46 1.42 1.44 1.49 1.53 1.55 1.54 1.52 1.51 1.52 1.54 1.55 1.58 1.61 1.61 1.62 1.63 1.60 1.53
1.49 1.46 1.43 1.41 1.42 1.43 1.47 1.48 1.52 1.54 1.56 1.53 1.53 1.52 1.52 1.47 1.47 1.44 1.46 1.46 1.43 1.41 1.46 1.46 1.49 1.49 1.48 1.47 1.52 1.49 1.53 1.52 1.52 1.56 1.64 1.66 1.63 1.61 1.58 1.54 1.47 1.45 1.48 1.47 1.30 1.51 1.60 1.48 1.60 1.68 1.64 1.68 1.74 1.75 1.78 1.80 1.80 1.81 1.77 1.73 1.69 1.63 1.60 1.59 1.57 1.57 1.53 1.49 1.47 1.46 1.48 1.51 1.54 1.54 1.53 1.53 1.53 1.53 1.54 1.56 1.57 1.60 1.62 1.62 1.63
1.45 1.44 1.40 1.39 1.40 1.40 1.44 1.46 1.48 1.51 1.52 1.53 1.54 1.52 1.52 1.49 1.48 1.44 1.44 1.44 1.40 1.38 1.41 1.46 1.47 1.46 1.43 1.40 1.44 1.47 1.52 1.51 1.51 1.59 1.67 1.67 1.61 1.53 1.49 1.43 1.41 1.46 1.54 1.51 1.41 1.41 1.65 1.60 1.62 1.67 1.73 1.72 1.76 1.70 1.71 1.74 1.79 1.79 1.79 1.79 1.79 1.75 1.71 1.66 1.64 1.64 1.63 1.59 1.54 1.51 1.51 1.50 1.50 1.51 1.52 1.52 1.53 1.55 1.56 1.55 1.56 1.57 1.59 1.61 1.62
1.41 1.40 1.38 1.38 1.39 1.40 1.42 1.44 1.43 1.43 1.43 1.44 1.49 1.50 1.48 1.47 1.48 1.45 1.42 1.41 1.38 1.40 1.44 1.44 1.49 1.47 1.47 1.45 1.49 1.54 1.58 1.49 1.48 1.50 1.50 1.50 1.49 1.48 1.47 1.44 1.45 1.56 1.57 1.53 1.43 1.42 1.56 1.72 1.67 1.67 1.76 1.79 1.73 1.78 1.69 1.70 1.71 1.77 1.82 1.84 1.84 1.83 1.81 1.76 1.72 1.72 1.71 1.68 1.65 1.63 1.60 1.58 1.54 1.53 1.53 1.53 1.54 1.55 1.57 1.58 1.58 1.59 1.59 1.59 1.61
1.39 1.38 1.38 1.39 1.38 1.39 1.40 1.42 1.43 1.42 1.41 1.41 1.41 1.40 1.36 1.35 1.36 1.41 1.39 1.38 1.36 1.37 1.40 1.35 1.39 1.44 1.44 1.39 1.40 1.44 1.48 1.41 1.40 1.39 1.40 1.40 1.41 1.38 1.40 1.46 1.53 1.60 1.70 1.57 1.48 1.39 1.32 1.53 1.56 1.68 1.70 1.84 1.71 1.84 1.71 1.69 1.72 1.77 1.75 1.79 1.82 1.82 1.81 1.84 1.85 1.83 1.80 1.76 1.73 1.69 1.68 1.67 1.64 1.59 1.58 1.58 1.57 1.56 1.57 1.58 1.59 1.60 1.61 1.62 1.62
1.39 1.39 1.38 1.38 1.37 1.38 1.40 1.41 1.41 1.40 1.40 1.39 1.40 1.38 1.36 1.33 1.31 1.35 1.40 1.38 1.33 1.30 1.30 1.33 1.37 1.44 1.44 1.45 1.46 1.47 1.47 1.39 1.40 1.44 1.53 1.58 1.63 1.59 1.60 1.65 1.62 1.66 1.72 1.72 1.58 1.40 1.35 1.38 1.51 1.53 1.62 1.76 1.75 1.79 1.84 1.83 1.83 1.83 1.75 1.76 1.78 1.82 1.84 1.86 1.87 1.90 1.92 1.89 1.82 1.76 1.72 1.70 1.68 1.65 1.64 1.62 1.61 1.61 1.61 1.61 1.59 1.59 1.61 1.63 1.64
1.34 1.37 1.39 1.38 1.38 1.38 1.38 1.40 1.43 1.44 1.46 1.48 1.49 1.50 1.49 1.47 1.45 1.43 1.45 1.46 1.44 1.41 1.39 1.41 1.47 1.52 1.53 1.53 1.55 1.56 1.55 1.48 1.50 1.57 1.68 1.73 1.72 1.70 1.70 1.77 1.78 1.76 1.79 1.82 1.79 1.64 1.56 1.44 1.54 1.57 1.66 1.66 1.75 1.85 1.88 1.88 1.80 1.75 1.73 1.74 1.81 1.83 1.87 1.90 1.90 1.89 1.92 1.93 1.92 1.87 1.82 1.78 1.74 1.69 1.65 1.63 1.62 1.62 1.63 1.64 1.64 1.63 1.61 1.61 1.63
1.31 1.32 1.34 1.38 1.37 1.36 1.36 1.38 1.40 1.41 1.44 1.48 1.49 1.52 1.55 1.56 1.55 1.54 1.55 1.58 1.61 1.63 1.66 1.68 1.72 1.72 1.69 1.63 1.62 1.61 1.57 1.50 1.54 1.60 1.69 1.68 1.70 1.71 1.72 1.79 1.80 1.83 1.85 1.83 1.81 1.79 1.68 1.58 1.60 1.69 1.70 1.67 1.72 1.76 1.80 1.72 1.74 1.76 1.77 1.71 1.70 1.71 1.77 1.87 1.89 1.90 1.90 1.92 1.92 1.91 1.89 1.84 1.80 1.78 1.74 1.69 1.64 1.62 1.60 1.60 1.62 1.63 1.64 1.64 1.63
1.27 1.29 1.28 1.30 1.33 1.34 1.38 1.41 1.43 1.46 1.54 1.61 1.65 1.64 1.62 1.62 1.63 1.64 1.65 1.67 1.72 1.79 1.84 1.88 1.90 1.90 1.84 1.79 1.76 1.72 1.65 1.56 1.57 1.65 1.72 1.74 1.77 1.78 1.79 1.83 1.86 1.87 1.85 1.85 1.84 1.80 1.76 1.70 1.66 1.61 1.70 1.66 1.67 1.69 1.74 1.73 1.66 1.64 1.68 1.73 1.74 1.71 1.64 1.64 1.74 1.83 1.87 1.86 1.86 1.89 1.90 1.90 1.88 1.84 1.81 1.80 1.77 1.73 1.68 1.64 1.60 1.59 1.59 1.60 1.61
1.24 1.23 1.25 1.27 1.33 1.37 1.41 1.45 1.47 1.53 1.66 1.78 1.79 1.76 1.74 1.75 1.76 1.75 1.75 1.79 1.84 1.89 1.94 1.95 1.94 1.92 1.90 1.86 1.80 1.76 1.73 1.75 1.79 1.82 1.85 1.86 1.86 1.84 1.85 1.85 1.88 1.86 1.82 1.83 1.83 1.78 1.74 1.70 1.70 1.69 1.63 1.69 1.67 1.56 1.72 1.80 1.76 1.71 1.60 1.57 1.57 1.69 1.70 1.64 1.58 1.69 1.75 1.77 1.82 1.85 1.86 1.88 1.91 1.92 1.90 1.86 1.84 1.83 1.83 1.79 1.72 1.62 1.56 1.54 1.52
1.24 1.23 1.24 1.26 1.34 1.44 1.50 1.54 1.60 1.68 1.78 1.82 1.83 1.84 1.85 1.84 1.81 1.81 1.84 1.84 1.86 1.90 1.94 1.97 1.99 1.98 1.97 1.96 1.91 1.86 1.82 1.82 1.81 1.82 1.82 1.76 1.79 1.77 1.84 1.86 1.89 1.89 1.86 1.85 1.81 1.78 1.74 1.71 1.66 1.63 1.67 1.61 1.65 1.71 1.74 1.73 1.66 1.68 1.73 1.64 1.50 1.52 1.55 1.61 1.62 1.57 1.67 1.69 1.68 1.73 1.79 1.83 1.86 1.91 1.94 1.93 1.90 1.89 1.91 1.92 1.90 1.83 1.70 1.58 1.52
1.25 1.26 1.29 1.34 1.39 1.47 1.56 1.63 1.69 1.77 1.80 1.83 1.87 1.87 1.84 1.83 1.85 1.83 1.84 1.87 1.89 1.91 1.95 1.99 2.02 2.02 2.02 2.00 1.96 1.93 1.92 1.91 1.89 1.89 1.90 1.88 1.80 1.74 1.82 1.88 1.88 1.86 1.84 1.82 1.79 1.77 1.79 1.78 1.69 1.69 1.65 1.62 1.65 1.63 1.60 1.60 1.62 1.64 1.79 1.76 1.61 1.62 1.60 1.52 1.58 1.69 1.70 1.65 1.69 1.69 1.71 1.78 1.77 1.79 1.84 1.86 1.90 1.93 1.94 1.95 1.95 1.95 1.93 1.86 1.78
1.29 1.30 1.33 1.39 1.45 1.50 1.56 1.62 1.68 1.73 1.76 1.80 1.86 1.90 1.90 1.87 1.86 1.85 1.85 1.85 1.86 1.88 1.91 1.94 1.97 2.01 2.03 2.03 2.01 2.02 2.04 2.05 2.03 2.00 1.94 1.92 1.92 1.90 1.85 1.81 1.78 1.77 1.79 1.79 1.81 1.82 1.79 1.74 1.75 1.70 1.59 1.55 1.59 1.66 1.68 1.72 1.77 1.83 1.83 1.83 1.65 1.66 1.65 1.59 1.61 1.70 1.80 1.75 1.67 1.61 1.69 1.80 1.77 1.77 1.80 1.77 1.87 1.93 1.93 1.95 1.95 1.99 2.00 1.98 1.96
1.36 1.37 1.38 1.39 1.45 1.54 1.58 1.60 1.64 1.71 1.76 1.79 1.81 1.86 1.89 1.92 1.92 1.89 1.85 1.84 1.87 1.87 1.87 1.87 1.87 1.92 1.92 1.95 2.05 2.11 2.07 2.01 1.97 1.94 1.95 2.00 1.96 1.96 2.01 2.01 1.95 1.88 1.81 1.77 1.79 1.85 1.79 1.75 1.77 1.73 1.65 1.60 1.65 1.72 1.72 1.74 1.81 1.81 1.77 1.76 1.70 1.66 1.58 1.49 1.40 1.63 1.91 1.81 1.71 1.62 1.62 1.80 1.80 1.70 1.75 1.78 1.82 1.85 1.88 1.88 1.94 1.98 1.98 1.98 1.98
1.39 1.39 1.36 1.39 1.47 1.55 1.59 1.62 1.64 1.69 1.76 1.82 1.83 1.85 1.87 1.90 1.93 1.92 1.88 1.83 1.83 1.83 1.84 1.81 1.79 1.79 1.85 1.97 2.06 2.07 2.08 2.11 2.09 2.05 2.02 2.05 2.09 2.09 2.05 2.02 1.97 1.96 1.95 1.91 1.84 1.82 1.82 1.76 1.75 1.76 1.75 1.72 1.72 1.76 1.76 1.75 1.75 1.78 1.80 1.76 1.68 1.61 1.56 1.53 1.54 1.50 1.78 1.90 1.74 1.64 1.59 1.78 1.82 1.79 1.76 1.80 1.85 1.87 1.87 1.90 1.93 1.94 1.96 1.96 1.97
1.45 1.40 1.38 1.41 1.44 1.51 1.56 1.61 1.67 1.76 1.82 1.88 1.90 1.91 1.91 1.91 1.91 1.89 1.85 1.84 1.81 1.80 1.80 1.79 1.77 1.78 1.80 1.78 1.81 1.99 2.13 2.14 2.12 2.09 2.06 2.04 2.06 2.07 2.07 2.04 1.99 1.93 1.92 1.92 1.95 1.96 1.98 1.90 1.83 1.78 1.79 1.78 1.75 1.79 1.85 1.81 1.83 1.69 1.74 1.74 1.72 1.70 1.68 1.60 1.60 1.63 1.74 1.92 1.78 1.64 1.54 1.68 1.77 1.76 1.77 1.89 1.93 1.91 1.88 1.88 1.88 1.90 1.92 1.92 1.92
1.51 1.48 1.51 1.54 1.60 1.64 1.67 1.70 1.74 1.81 1.85 1.88 1.88 1.87 1.84 1.82 1.79 1.77 1.76 1.76 1.78 1.81 1.81 1.80 1.81 1.82 1.83 1.83 1.81 1.80 1.89 1.98 2.04 2.05 2.02 1.99 2.00 2.02 2.03 2.00 1.97 1.99 1.96 1.93 1.95 2.00 2.02 1.99 1.96 1.83 1.92 1.92 1.85 1.90 1.97 1.96 1.81 1.71 1.69 1.69 1.77 1.68 1.60 1.57 1.68 1.71 1.82 1.90 1.71 1.64 1.51 1.60 1.76 1.76 1.74 1.86 2.00 2.01 1.99 1.97 1.95 1.95 1.95 1.95 1.95
1.65 1.63 1.67 1.73 1.81 1.86 1.87 1.87 1.83 1.82 1.83 1.82 1.79 1.76 1.73 1.70 1.69 1.70 1.71 1.71 1.71 1.71 1.73 1.75 1.78 1.79 1.81 1.85 1.85 1.81 1.85 1.89 1.97 1.99 1.95 1.94 1.96 1.98 1.98 1.99 2.02 1.99 1.97 1.97 1.98 2.02 2.04 2.04 2.03 1.97 1.97 2.02 2.02 2.04 2.04 2.02 1.93 1.86 1.83 1.76 1.74 1.70 1.69 1.74 1.72 1.78 1.79 1.91 1.85 1.73 1.43 1.59 1.76 1.69 1.73 1.87 1.99 2.00 2.03 2.03 2.04 2.05 2.06 2.03 2.00
1.82 1.81 1.82 1.84 1.88 1.96 2.01 1.93 1.90 1.80 1.78 1.77 1.73 1.72 1.71 1.71 1.71 1.71 1.72 1.71 1.70 1.70 1.72 1.78 1.79 1.77 1.85 1.82 1.77 1.80 1.84 1.88 1.91 1.94 1.98 2.00 1.96 1.93 1.90 1.92 1.96 2.01 2.02 2.06 2.06 2.10 2.10 2.05 2.02 2.03 2.05 2.04 2.05 2.07 2.08 2.04 1.98 1.94 1.88 1.85 1.81 1.74 1.64 1.55 1.48 1.62 1.62 1.82 1.88 1.75 1.61 1.60 1.77 1.65 1.65 1.79 1.86 1.87 1.99 2.03 2.04 2.04 2.05 2.07 2.12
1.96 1.87 1.80 1.82 1.86 1.88 1.94 1.98 1.90 1.81 1.81 1.83 1.81 1.80 1.80 1.80 1.79 1.79 1.80 1.81 1.82 1.82 1.86 1.91 1.91 1.92 1.91 1.91 1.95 1.94 1.92 1.92 1.97 1.98 1.96 1.94 1.88 1.85 1.85 1.86 1.89 1.89 1.89 1.97 2.04 2.06 2.06 2.09 2.11 2.10 2.10 2.08 2.07 2.06 2.03 2.01 1.98 1.96 1.87 1.71 1.61 1.65 1.53 1.42 1.43 1.48 1.53 1.70 1.82 1.82 1.70 1.58 1.75 1.75 1.67 1.71 1.74 1.76 1.86 1.96 2.03 2.04 2.03 2.03 2.02
1.98 1.96 1.93 1.87 1.87 1.89 1.90 1.89 1.89 1.84 1.84 1.88 1.88 1.88 1.87 1.88 1.90 1.90 1.91 1.90 1.90 1.91 1.92 1.95 1.97 1.97 2.00 2.03 2.04 2.00 1.95 1.96 2.00 2.00 2.01 1.99 1.87 1.84 1.83 1.81 1.80 1.80 1.86 1.96 2.02 2.07 2.10 2.09 2.08 2.07 2.03 2.01 2.01 2.01 2.01 1.99 1.99 1.99 1.85 1.65 1.71 1.69 1.56 1.54 1.45 1.50 1.59 1.66 1.74 1.88 1.66 1.58 1.73 1.78 1.71 1.75 1.75 1.74 1.78 1.87 1.94 1.97 1.97 1.95 1.94
2.05 2.01 1.95 1.85 1.84 1.90 1.95 1.96 1.97 1.91 1.89 1.92 1.93 1.93 1.93 1.94 1.95 1.96 1.95 1.93 1.89 1.96 1.94 1.99 2.04 2.05 2.07 2.08 2.08 2.02 1.99 2.02 2.07 2.10 2.08 2.03 1.93 1.87 1.84 1.79 1.75 1.75 1.82 1.88 1.89 1.87 1.90 1.91 1.92 1.93 1.92 1.94 1.94 1.94 1.94 1.97 1.97 1.98 1.96 1.89 1.87 1.75 1.61 1.59 1.57 1.56 1.48 1.59 1.78 1.89 1.63 1.64 1.68 1.75 1.73 1.60 1.50 1.67 1.79 1.79 1.81 1.84 1.84 1.83 1.82
Wind_Speed
9 9 9 9 8 8 6 6 6 5 5 5 4 3 3 2 2 2 1 1 2 2 2 2 3 3 4 5 6 7 7 8 8 8 9 9 9 9 9 8 9 9 9 9 9 10 10 11 12 13 14 14 15 15 15 15 15 15 14 13 12 12 11 9 9 9 8 8 8 9 10 12 14 16 18 20 20 20 20 20 20 20 20 20 20
9 10 10 9 8 8 7 7 6 5 5 5 4 3 3 2 2 1 1 1 1 1 2 2 3 3 4 5 6 6 7 7 8 8 8 9 8 8 8 9 8 9 9 9 10 10 10 11 12 12 13 14 14 15 15 16 16 16 15 14 13 12 12 11 10 10 9 9 9 9 10 11 13 15 17 18 18 19 21 21 21 21 21 20 20
10 10 10 10 9 9 8 6 6 5 5 5 4 4 3 2 2 2 1 0 0 1 2 2 3 4 4 5 6 6 6 7 7 8 8 8 8 8 8 8 8 8 8 9 9 10 10 11 11 12 13 14 14 15 15 16 16 16 16 15 14 13 13 12 11 11 10 9 9 10 11 11 13 14 16 17 17 18 21 22 22 22 22 21 21
10 10 11 11 11 9 8 7 6 5 5 5 4 4 3 2 2 2 1 1 1 1 2 3 4 4 4 5 5 6 7 7 7 7 8 8 8 8 8 8 8 8 8 8 8 9 10 10 11 12 12 13 14 15 15 16 16 16 16 16 15 15 14 14 13 12 12 10 10 10 11 12 12 13 15 16 16 18 20 22 23 23 22 22 21
11 11 11 11 11 9 8 7 6 5 4 4 4 3 3 3 2 2 2 1 1 2 3 3 4 4 5 5 5 6 6 7 7 7 8 8 8 8 8 8 8 8 7 8 8 9 9 10 11 11 12 13 13 14 15 16 16 17 17 17 16 16 15 15 14 14 13 12 11 10 10 11 12 13 14 15 16 18 20 21 22 23 23 22 22
12 12 11 11 10 9 8 7 5 5 4 4 4 3 3 3 3 2 2 1 2 3 4 4 4 4 4 5 5 6 6 6 7 7 8 8 8 8 8 8 8 8 7 7 8 8 9 10 10 11 12 12 13 14 15 16 16 17 17 17 17 17 16 16 15 15 14 13 12 10 9 9 10 12 14 15 16 18 20 21 22 23 23 23 22
13 12 12 11 10 9 8 6 5 5 4 3 4 4 3 3 2 2 2 2 2 3 4 4 4 4 4 5 5 6 6 6 7 7 8 8 8 7 7 7 8 8 7 7 7 8 8 9 10 11 11 12 12 13 14 15 16 16 17 17 18 18 17 17 17 16 15 15 13 10 8 7 7 9 12 15 16 19 20 21 22 22 22 23 22
13 12 11 10 9 8 7 6 5 5 4 4 4 3 3 3 3 2 2 2 3 3 3 4 4 4 4 5 5 6 6 7 7 7 8 8 8 7 7 7 8 7 7 6 7 8 8 8 9 10 11 12 12 12 13 15 15 16 17 17 18 18 18 18 17 17 16 16 14 11 8 5 4 6 10 13 16 19 21 22 23 23 23 22 22
13 12 11 10 9 8 7 6 6 5 4 4 3 3 3 2 2 2 3 3 3 3 3 4 4 4 4 4 5 6 7 7 7 7 7 7 7 7 7 7 7 7 6 6 7 8 8 8 9 9 10 11 12 12 13 14 15 16 16 17 18 18 19 18 18 18 17 17 15 12 8 5 1 3 7 11 15 19 22 23 23 24 23 22 22
13 12 11 10 9 8 7 6 6 5 5 4 3 3 2 2 2 2 3 3 3 3 3 3 3 3 4 4 5 6 7 7 7 7 7 7 7 7 7 7 7 6 6 7 7 7 8 8 8 9 10 10 11 12 12 13 14 15 16 17 18 18 19 19 19 18 18 17 16 13 11 7 4 3 7 10 15 19 21 23 24 24 23 23 22
12 11 11 10 9 8 6 6 6 5 5 4 3 3 2 2 2 2 2 2 2 2 2 3 3 4 4 4 5 6 7 6 6 7 7 7 7 7 8 7 6 6 6 7 7 7 8 8 8 9 9 10 11 11 12 12 14 15 16 16 17 18 19 19 19 19 18 18 17 15 13 10 8 7 8 12 15 18 21 23 24 24 24 23 22
12 11 11 10 8 7 6 6 6 6 5 5 4 3 3 2 2 2 2 2 2 2 2 3 3 4 4 5 5 6 6 7 7 7 7 7 7 7 7 7 6 6 6 7 7 7 7 8 8 9 9 9 10 10 11 12 13 14 15 16 17 18 19 19 19 19 19 18 17 17 16 14 12 12 12 14 17 19 21 22 23 24 23 22 21
11 11 10 9 8 7 6 6 6 5 5 5 5 4 4 3 3 2 2 2 2 2 2 3 3 4 4 5 5 6 6 6 7 7 7 7 7 7 7 7 6 7 7 7 7 7 7 7 8 8 9 9 9 10 10 11 12 13 14 15 16 17 18 19 19 19 19 18 18 18 18 17 16 16 16 17 19 20 21 22 23 23 23 21 21
11 11 10 9 8 7 7 6 6 5 6 6 5 5 4 4 3 3 2 2 2 2 2 3 3 4 4 5 5 6 6 6 7 7 7 7 7 7 7 6 6 7 7 6 6 7 7 7 8 8 8 9 9 9 10 10 11 12 13 15 16 16 18 19 19 19 19 19 19 19 19 19 19 19 19 20 21 21 22 22 22 22 21 21 20
11 10 10 9 8 7 7 7 6 6 6 6 6 5 5 5 4 4 3 3 2 2 2 2 3 4 4 4 5 6 6 6 8 8 7 7 7 7 7 6 6 7 7 7 6 7 7 7 7 7 8 8 8 8 9 10 11 11 12 14 15 15 17 18 19 19 19 18 19 19 20 20 20 20 20 21 22 22 22 22 22 21 20 19 19
11 10 10 9 8 8 7 7 6 6 6 5 5 5 5 5 4 4 3 3 3 3 3 3 3 3 4 4 4 5 5 6 8 7 7 8 7 7 7 7 7 6 7 7 7 7 7 7 7 7 7 8 8 8 8 9 10 11 12 13 14 14 15 17 18 19 18 18 18 19 20 20 20 20 21 21 22 22 22 21 21 20 19 18 18
11 10 10 9 8 8 7 6 6 6 6 5 5 5 5 5 5 4 4 3 3 3 3 3 3 3 3 3 4 4 5 6 7 6 7 8 7 7 7 7 7 7 7 7 7 6 6 7 7 7 7 7 7 8 8 9 9 10 11 12 13 13 14 15 17 18 18 18 18 18 19 20 20 20 20 21 21 21 20 20 19 19 18 17 16
11 10 10 9 9 8 7 6 6 6 6 5 5 5 5 5 5 5 4 4 3 3 3 3 3 3 3 3 3 4 4 5 5 6 7 7 7 8 7 7 8 7 7 7 7 7 6 6 6 6 6 7 7 8 8 8 9 9 10 11 12 12 13 14 15 16 17 18 17 17 18 18 19 19 19 19 19 19 19 18 17 17 16 16 15
11 11 10 9 9 8 7 6 6 6 6 5 5 5 5 5 5 4 4 4 3 3 3 3 3 3 3 3 3 3 4 4 5 5 6 7 7 8 8 8 8 8 7 7 7 7 6 6 5 5 6 6 7 7 7 8 8 9 9 10 11 11 12 13 14 15 16 17 17 16 16 17 17 18 18 18 17 17 17 16 16 15 15 14 14
11 10 10 9 8 8 7 6 6 6 6 5 5 5 5 5 4 4 4 4 4 4 4 3 3 3 3 3 3 3 3 3 4 5 6 6 7 8 8 9 9 8 7 7 7 8 7 6 5 5 5 5 6 7 7 7 7 8 8 9 10 10 11 11 12 13 14 15 16 16 15 15 15 16 16 16 15 15 15 15 15 14 14 13 13
11 10 10 9 9 8 7 7 6 6 6 6 5 5 5 5 4 4 4 4 4 4 3 3 3 3 3 2 2 2 3 3 4 5 5 5 6 7 8 8 9 8 8 7 7 8 7 6 5 5 5 5 6 6 6 6 7 7 8 8 9 9 10 10 11 12 13 13 14 15 14 14 14 14 14 14 14 13 13 13 13 13 13 12 12
11 10 10 9 9 8 7 7 6 6 6 6 5 5 5 5 5 4 4 4 4 4 3 3 3 3 2 2 2 3 3 3 4 5 5 5 5 6 7 7 8 8 8 8 8 7 7 7 6 5 5 5 5 5 5 6 6 7 7 7 8 8 9 9 10 10 11 12 12 13 13 13 13 12 12 12 12 12 11 11 11 11 11 11 11
11 10 9 9 8 8 8 7 6 6 6 6 6 5 5 5 5 4 4 4 4 4 4 3 3 3 3 2 2 3 3 3 4 4 4 4 4 6 6 7 7 7 8 8 8 7 7 7 6 6 6 5 5 5 5 5 5 6 6 7 7 7 8 8 9 9 10 10 10 11 11 12 12 11 11 10 10 10 10 9 9 9 9 9 9
10 10 9 9 8 8 8 7 7 6 6 6 6 6 5 5 5 4 4 4 4 4 4 3 3 3 3 3 3 3 3 3 4 4 4 4 4 5 6 7 6 7 8 8 8 7 7 7 7 6 6 6 6 5 5 5 5 5 6 6 6 6 7 7 7 8 8 9 9 9 9 10 10 10 10 9 9 8 8 8 8 8 8 8 7
10 10 9 9 9 8 8 7 7 7 6 6 6 6 5 5 5 5 4 4 4 4 4 4 3 3 3 3 3 4 4 4 4 4 4 4 4 5 6 6 6 7 8 8 8 8 7 6 7 6 6 6 6 5 5 5 5 5 5 5 5 5 5 6 6 6 7 7 7 8 8 8 8 8 8 8 8 7 7 7 6 6 6 7 7
11 10 10 9 9 9 8 8 7 7 7 6 6 6 5 5 5 5 4 4 4 4 4 4 4 4 4 4 4 4 4 4 4 4 4 4 4 5 5 6 6 6 7 7 7 8 7 6 6 6 6 6 6 5 4 4 5 5 4 4 4 4 4 5 5 5 5 5 5 6 6 6 6 6 6 6 6 6 6 6 5 5 6 6 6
11 10 9 9 9 9 9 8 8 7 7 6 6 6 6 5 5 5 4 4 4 4 4 4 4 4 4 4 4 4 4 4 4 4 4 4 4 4 5 5 6 6 6 6 7 7 6 6 6 6 6 6 6 5 5 4 5 5 4 4 4 3 3 3 4 3 3 4 4 4 4 4 4 4 4 4 4 5 4 4 4 4 5 5 5
11 10 10 9 9 9 9 9 8 8 7 7 6 6 6 6 5 5 5 5 5 4 4 4 4 4 4 4 4 4 4 4 4 4 4 4 4 4 4 4 5 5 6 6 6 6 6 6 5 5 6 6 6 6 5 4 4 5 4 4 3 3 3 3 3 2 2 2 2 2 2 2 2 2 2 2 3 3 3 3 3 3 4 4 4
11 10 10 10 10 9 9 9 9 8 8 7 7 6 6 6 6 5 5 5 5 5 4 4 4 4 4 4 4 4 4 4 5 5 4 4 4 4 4 4 4 5 5 6 6 6 5 5 5 5 6 6 5 5 5 5 4 5 5 4 3 3 2 2 2 2 2 1 1 1 1 1 1 0 0 1 1 2 2 2 3 3 3 4 4
11 11 10 10 10 10 10 9 9 8 8 7 7 7 7 6 6 6 6 5 5 5 5 5 5 5 5 5 5 5 5 5 6 6 5 5 5 5 5 5 5 5 5 5 6 6 5 5 5 5 6 6 5 5 5 5 5 4 4 4 4 3 3 3 2 2 2 2 1 1 1 1 1 1 2 2 2 3 3 3 4 4 4 4 5
11 11 11 10 10 10 10 10 9 9 8 8 7 7 7 7 7 7 7 6 6 6 6 6 6 5 6 6 5 6 6 6 7 6 6 6 6 5 5 6 6 6 5 5 6 6 5 5 6 6 6 6 5 5 6 6 5 4 4 4 4 4 4 4 3 3 2 2 2 2 2 2 3 3 3 3 4 4 5 5 5 5 6 6 6
12 12 11 11 11 11 10 10 10 9 9 8 8 8 7 7 8 8 7 7 7 7 7 7 7 7 7 7 6 6 7 7 7 7 7 7 7 7 7 7 7 7 6 6 6 7 7 6 7 7 7 6 6 6 6 6 5 5 4 5 5 4 4 4 4 4 4 4 4 4 4 4 4 4 4 5 5 5 6 6 7 7 7 8 8
13 13 12 12 11 11 11 10 10 10 9 9 9 8 8 8 8 8 8 8 8 8 8 8 8 8 8 8 8 8 8 8 8 8 8 8 8 8 8 8 8 8 7 7 7 8 8 7 7 7 7 7 7 6 6 6 6 5 5 5 5 5 5 5 5 5 5 5 5 5 5 5 5 5 5 6 6 6 7 7 8 8 9 9 9
14 13 13 13 12 12 12 11 11 10 10 10 9 9 9 9 9 8 9 9 9 9 9 9 9 8 8 9 9 9 9 9 9 9 9 9 9 9 9 9 9 9 9 8 8 9 9 9 8 8 8 7 7 7 7 7 7 6 6 7 7 6 6 6 6 6 7 7 7 7 7 7 7 7 7 7 7 7 8 8 9 9 10 10 11
15 14 14 13 13 13 13 13 12 12 11 11 10 10 10 10 10 9 9 9 9 9 9 9 9 9 9 10 10 10 10 10 10 10 10 10 10 10 10 9 10 10 10 10 9 10 10 10 9 9 8 8 8 8 8 8 8 8 8 8 8 8 8 8 8 8 8 8 8 8 8 9 9 8 8 8 8 8 9 9 9 10 11 11 12
15 15 15 14 14 14 14 14 13 13 12 12 12 11 11 11 10 10 10 10 10 10 10 10 10 10 11 11 11 11 11 11 11 11 10 11 11 11 11 11 11 11 11 11 11 11 11 11 11 10 9 9 10 10 10 10 9 9 9 9 9 9 9 9 9 9 9 9 9 9 9 10 10 10 10 10 10 10 10 10 10 11 11 12 12
17 16 16 16 15 15 15 15 14 14 14 13 13 13 13 12 12 12 12 12 12 12 12 12 12 12 12 13 13 13 12 13 12 12 12 12 12 12 12 12 12 12 12 12 12 12 12 12 12 12 11 11 11 11 11 11 11 11 10 10 10 10 10 10 11 11 11 11 11 11 11 11 11 11 11 11 11 11 11 12 12 12 12 13 13
18 17 17 17 16 16 16 16 15 15 14 14 14 14 14 13 13 13 13 13 13 13 13 13 14 14 14 14 14 14 14 14 14 14 13 13 13 13 13 13 13 13 13 13 13 13 13 13 13 13 13 13 12 12 12 12 12 12 12 12 11 11 11 11 11 11 12 12 12 12 12 12 12 12 12 12 12 12 13 13 13 13 13 14 14
19 19 18 18 17 17 17 16 16 16 16 15 15 15 15 14 14 14 14 14 14 14 14 14 15 15 15 15 15 15 15 15 15 15 14 14 14 14 14 14 14 14 14 14 14 14 14 14 14 14 14 14 13 13 13 13 13 13 13 13 13 12 12 12 12 12 12 13 13 13 13 14 14 14 14 14 14 14 14 14 14 14 14 15 15
20 20 19 19 18 18 17 17 17 17 17 17 16 16 15 15 15 15 15 15 15 15 15 15 16 16 16 16 16 16 15 15 15 16 16 16 16 15 15 15 15 15 15 15 14 14 14 15 15 15 14 14 14 15 14 14 14 13 13 13 14 13 13 13 13 13 13 13 14 14 14 14 15 15 15 16 16 16 15 15 15 15 16 16 16
21 21 20 20 19 19 19 18 18 18 18 18 17 17 16 16 16 16 16 16 16 16 16 17 17 17 17 16 16 16 16 17 17 17 17 17 17 16 16 15 15 15 15 15 15 15 15 15 15 15 15 15 15 15 15 15 14 14 14 14 14 15 15 15 14 14 14 14 14 14 15 15 15 16 16 17 17 17 17 17 17 17 17 17 17
22 22 21 21 21 20 20 19 19 19 19 18 18 18 18 17 17 17 17 17 17 17 18 18 18 17 17 16 17 17 17 18 18 18 18 18 18 17 17 16 16 16 16 16 16 16 16 17 17 16 16 16 16 16 16 16 15 15 15 15 15 15 16 16 15 15 14 15 15 15 16 16 16 17 17 18 18 19 19 19 19 18 18 18 18
23 22 22 22 21 21 20 20 20 19 19 19 19 20 19 19 19 18 18 18 18 19 19 18 18 17 17 17 17 18 18 18 18 18 18 18 18 18 18 17 17 17 17 17 17 18 18 18 18 17 17 18 17 17 17 16 16 16 16 16 16 16 16 16 16 16 16 16 16 17 17 17 17 18 18 19 19 20 20 20 21 21 20 20 20
24 23 23 22 22 21 21 20 20 20 19 19 19 19 19 20 20 20 19 20 20 20 20 19 19 18 18 18 18 18 19 18 18 18 18 18 18 18 18 18 17 17 17 18 18 19 19 18 18 18 18 18 18 18 17 17 17 17 17 17 17 17 17 17 17 17 17 17 18 19 19 19 19 20 20 20 20 20 21 22 22 22 23 22 22
24 24 23 23 22 22 22 21 21 20 20 19 19 19 20 20 20 21 21 21 21 21 21 20 20 20 20 19 19 19 19 19 19 19 18 18 18 18 18 17 17 17 18 18 18 18 19 19 19 19 18 18 19 18 18 18 18 18 19 18 18 18 18 18 19 19 19 19 19 20 21 21 20 21 21 21 21 21 22 23 23 24 24 24 24
25 25 24 24 24 23 23 22 22 21 20 20 20 20 21 21 21 22 22 22 22 22 22 21 21 21 21 21 20 20 20 20 20 19 19 19 18 18 18 18 18 18 18 18 18 18 18 19 19 19 19 19 19 19 19 19 19 20 20 20 20 20 20 21 21 21 21 21 21 21 21 22 21 22 22 22 22 23 23 24 24 25 25 26 26
26 25 24 24 24 23 23 23 22 21 21 21 21 21 22 22 23 23 23 24 24 23 23 22 22 22 22 22 22 21 21 21 21 20 20 20 19 19 19 19 19 19 19 19 19 19 19 19 20 20 20 20 20 20 20 21 21 21 21 22 22 22 22 22 22 22 22 22 22 22 22 23 22 22 23 23 23 24 24 25 25 26 26 27 28
25 25 24 24 24 24 23 22 22 22 22 21 22 22 23 23 24 24 24 25 25 24 24 23 23 23 23 23 23 22 22 22 22 22 22 21 21 20 20 20 20 19 20 20 20 20 20 21 21 21 21 21 21 21 22 22 23 23 23 23 23 23 23 24 23 23 23 23 23 23 23 24 24 24 24 24 24 24 25 25 26 27 27 28 28
25 25 24 24 24 24 23 22 22 22 22 22 22 23 23 24 24 25 25 25 25 25 25 25 25 25 25 24 24 23 23 23 23 23 23 22 21 21 20 20 20 20 20 21 21 21 21 21 21 21 21 22 22 23 23 24 24 24 24 24 24 24 24 24 24 24 24 24 24 25 25 25 25 25 25 25 25 25 25 26 26 27 27 28 28
25 24 24 24 23 23 23 23 23 23 22 22 22 23 24 24 25 25 25 25 25 25 25 25 25 25 25 24 24 24 24 24 23 22 22 22 21 21 20 20 20 20 21 21 22 22 22 22 22 22 23 23 24 24 25 25 25 25 25 25 25 25 25 25 25 25 25 25 25 26 26 26 26 26 26 26 26 26 26 26 26 26 27 28 29
23 22 23 23 23 22 22 22 22 22 22 23 23 24 25 25 26 26 26 26 25 25 25 25 24 24 24 23 23 23 23 22 21 20 20 20 21 20 20 20 20 20 21 22 22 23 23 23 23 24 24 24 24 25 25 25 25 25 24 25 25 25 26 26 26 26 26 26 26 27 27 27 27 28 28 27 27 26 26 26 26 27 27 28 29
Wind_Direction
185 183 180 174 171 168 167 165 160 162 164 162 161 162 157 153 151 141 124 110 88 70 56 39 22 12 7 7 9 12 12 11 12 12 13 16 15 18 19 16 16 16 16 16 16 21 20 18 18 17 16 16 16 16 14 14 12 11 9 6 2 359 354 348 341 333 321 308 290 276 266 256 248 243 238 234 229 224 220 218 215 213 211 210 209
182 180 175 173 173 167 163 163 162 164 165 165 165 167 164 158 159 155 144 122 81 49 24 10 2 355 355 0 2 2 3 4 7 8 9 13 14 15 14 12 12 13 15 13 14 18 18 16 16 16 14 15 15 14 14 13 12 11 9 7 4 0 356 351 345 339 330 317 301 286 276 263 253 247 241 235 230 224 221 218 215 212 211 209 208
179 178 175 174 172 165 165 166 165 166 168 170 170 171 173 174 180 186 196 217 18 2 355 351 346 342 345 350 349 350 354 355 0 3 5 8 9 9 8 7 8 9 12 12 12 14 13 13 14 14 13 13 14 13 13 13 12 11 9 8 6 1 358 354 349 345 337 325 309 293 281 269 257 249 242 236 229 223 219 215 213 211 209 207 206
176 177 176 174 169 167 170 169 169 173 174 176 176 177 181 191 204 216 235 263 311 327 333 332 329 330 336 340 339 344 346 348 354 358 360 0 1 1 0 1 2 4 7 8 9 9 9 11 12 12 11 11 13 13 12 12 12 11 9 8 7 2 359 357 353 349 343 333 318 301 287 274 261 250 241 234 226 219 215 212 210 209 206 204 203
177 177 175 173 172 173 175 174 176 179 179 182 184 187 192 203 217 231 240 257 301 322 325 319 316 318 326 333 337 341 342 344 349 352 355 354 353 355 354 355 356 358 1 2 3 4 5 8 10 10 10 10 11 12 11 11 11 11 9 8 8 4 1 359 357 353 348 339 330 313 294 279 265 250 239 231 222 214 211 208 207 206 204 202 202
177 176 175 174 175 177 179 181 182 181 182 187 192 197 203 211 220 233 242 262 302 319 321 316 314 313 319 329 334 337 338 343 346 347 350 349 349 351 350 350 351 352 355 356 358 359 1 4 7 8 8 9 10 10 10 11 11 11 9 9 8 7 4 2 0 358 354 348 341 326 305 284 263 248 236 228 218 210 208 205 203 202 201 201 200
178 176 176 177 178 180 184 187 186 185 186 191 197 201 206 216 221 232 245 264 295 311 316 317 319 320 320 325 331 335 339 343 345 347 347 345 346 348 347 348 348 348 351 354 355 356 358 0 4 5 6 7 9 9 9 10 11 11 10 10 10 9 7 5 3 2 360 357 351 337 317 294 263 241 229 222 214 207 204 201 200 197 196 196 197
178 177 178 179 180 182 189 193 189 189 192 195 197 199 206 217 222 230 246 265 289 304 308 313 321 326 326 328 334 341 344 346 347 347 345 344 346 347 347 348 348 348 349 352 354 356 356 357 360 2 4 6 7 8 7 9 11 11 11 11 11 10 10 8 7 6 4 3 0 352 338 318 271 231 218 213 207 204 201 197 195 193 191 191 192
177 178 180 182 182 186 194 196 193 193 195 196 195 197 206 217 227 238 249 262 281 295 303 312 320 325 329 332 338 344 348 350 351 351 349 349 351 350 348 347 349 352 350 349 353 356 357 357 359 1 3 4 5 6 6 8 10 11 11 12 12 12 12 12 10 9 9 10 10 7 6 3 324 207 198 197 195 195 195 193 191 190 189 188 188
178 180 182 184 186 192 197 197 198 199 196 196 196 195 202 215 234 248 254 262 276 288 303 318 323 326 332 336 339 346 349 351 352 353 355 356 354 351 347 346 349 351 349 348 350 353 355 357 359 1 2 2 2 5 6 7 10 12 12 13 14 14 15 15 14 14 15 17 19 22 27 34 58 136 167 174 177 182 186 187 186 186 186 185 185
179 181 184 186 189 194 198 199 201 201 198 200 200 195 201 214 230 246 256 266 277 288 304 320 327 333 338 339 340 344 345 347 348 348 352 354 352 348 345 343 345 346 347 347 346 348 353 356 359 1 3 1 1 4 6 8 10 12 13 14 15 17 17 18 18 18 21 23 28 35 40 49 71 103 134 151 159 167 174 178 179 179 180 180 181
181 183 185 187 191 194 197 199 201 202 203 206 206 205 210 221 232 245 260 276 286 296 311 323 331 336 341 344 344 344 343 344 344 344 347 350 348 347 347 346 346 347 347 346 345 347 351 355 357 360 2 1 2 5 7 8 11 13 15 15 17 19 20 21 23 23 27 31 36 44 49 56 73 95 116 133 143 152 160 164 167 170 172 173 176
182 184 186 188 191 194 197 200 201 204 208 211 213 215 220 229 240 251 267 290 302 309 319 328 335 341 345 348 350 351 350 350 348 346 348 349 348 348 351 351 351 352 351 349 349 349 351 354 356 359 2 2 3 8 10 10 13 15 16 17 18 21 23 24 26 28 31 37 43 51 57 62 74 92 108 121 131 139 147 152 157 162 165 167 171
182 185 187 189 192 196 199 202 204 207 211 215 218 222 229 236 245 256 268 286 295 304 312 322 336 347 349 350 353 356 360 5 2 356 355 354 353 354 356 357 357 357 356 353 352 350 351 353 356 0 3 4 5 10 14 13 14 17 18 19 21 24 26 27 30 32 36 41 48 55 62 68 76 89 102 114 122 129 137 143 150 155 160 163 167
183 186 188 190 194 198 201 204 206 209 213 218 222 228 234 239 248 257 263 272 277 287 299 312 333 347 352 355 359 0 4 8 4 4 5 2 360 359 360 360 357 358 358 354 351 351 351 353 357 360 3 5 6 10 17 16 16 19 21 22 24 26 29 31 34 37 40 45 52 59 66 72 78 88 99 109 116 122 129 136 143 148 154 158 162
184 187 189 191 195 199 202 205 208 212 216 219 224 230 234 239 248 255 258 261 265 278 291 305 328 342 351 356 1 5 5 1 359 4 9 6 7 6 4 3 359 357 357 355 354 355 354 355 358 2 5 7 8 13 20 19 18 21 23 25 27 29 33 35 38 41 44 49 55 62 69 75 81 88 97 105 113 119 125 131 138 143 148 153 157
186 189 190 192 196 200 203 208 212 215 217 219 225 231 234 239 247 253 255 257 261 275 286 300 320 333 344 351 358 5 2 358 1 4 5 8 12 11 9 10 6 360 356 356 358 359 356 356 0 6 9 11 13 15 20 21 20 22 26 27 29 32 36 39 42 44 48 52 58 65 72 78 83 90 97 104 111 116 122 127 133 139 145 149 154
188 191 192 193 196 200 204 208 212 215 215 217 224 230 234 238 244 250 253 252 258 272 284 297 313 322 333 341 348 352 351 358 7 6 4 9 14 13 13 11 8 4 2 1 2 2 360 359 2 7 11 14 16 17 20 22 21 24 28 30 32 35 39 43 45 48 51 54 59 66 73 80 85 91 98 104 110 115 120 125 130 135 141 146 150
190 192 193 195 198 202 206 209 213 216 216 217 223 229 233 236 242 248 250 250 255 268 283 296 305 312 324 332 335 336 340 355 8 9 9 11 12 16 17 13 12 11 9 9 10 8 6 5 4 6 10 14 18 19 21 23 24 27 30 32 35 38 41 45 48 51 54 56 61 67 73 80 86 92 98 103 109 114 118 122 127 132 137 141 146
191 193 195 198 201 204 208 210 213 215 217 219 225 229 231 235 240 244 247 249 253 263 276 286 295 303 314 325 329 333 341 353 3 9 12 9 8 16 18 14 16 18 15 15 15 12 10 9 9 8 8 11 17 21 23 25 27 30 32 34 36 40 45 49 51 53 56 58 62 67 73 79 86 92 98 102 107 113 118 122 127 131 135 140 144
194 196 198 201 205 208 209 211 213 214 217 221 225 228 231 233 237 241 246 249 251 257 266 273 283 294 304 315 322 330 342 353 0 4 7 5 6 13 14 11 14 18 20 19 16 14 15 15 15 13 11 11 17 23 26 28 29 31 35 36 38 42 48 52 54 56 58 60 63 67 73 79 85 92 98 102 107 111 116 122 128 133 137 141 144
198 199 201 205 208 210 210 212 214 216 220 223 225 228 230 231 234 239 246 251 252 255 261 268 276 282 289 301 313 323 335 348 354 356 359 1 1 4 7 8 9 13 18 19 17 17 19 22 24 23 20 20 22 26 29 30 31 32 35 39 42 46 51 55 58 59 60 62 65 68 72 77 83 90 96 102 106 110 115 121 126 132 137 141 145
200 202 204 207 210 212 212 214 217 220 223 225 226 228 228 229 232 239 246 251 253 255 260 266 270 271 274 284 300 315 324 331 337 344 350 354 356 358 0 2 2 4 10 14 17 18 20 27 33 31 31 32 31 32 31 30 31 31 34 40 46 51 53 55 60 62 62 64 67 70 74 77 81 86 93 99 105 110 115 120 126 132 138 143 148
202 204 207 209 211 213 214 216 218 222 224 226 228 228 227 227 232 240 246 249 250 255 263 265 264 264 269 275 286 301 311 318 327 337 343 344 350 354 356 358 0 1 4 9 15 18 21 28 31 32 35 36 35 36 33 29 29 31 34 39 46 53 54 55 60 63 64 65 68 72 76 78 80 84 89 96 103 110 116 122 128 135 141 148 153
204 207 209 210 212 214 215 218 220 223 225 227 229 228 227 229 235 242 245 247 250 257 264 265 262 260 265 272 278 287 297 310 323 332 336 339 345 350 353 357 359 358 1 9 15 17 21 27 27 29 32 32 32 33 32 30 29 32 34 36 42 49 53 55 60 63 64 65 68 71 76 79 82 85 87 91 98 108 116 124 133 141 148 155 160
207 209 211 211 213 215 217 219 221 224 226 229 230 228 229 232 239 244 245 249 253 258 264 263 259 257 263 272 277 280 287 299 312 320 327 334 339 345 351 357 358 358 2 8 12 15 20 23 24 26 26 23 22 22 24 26 26 30 33 32 34 42 48 52 58 62 64 64 65 69 73 78 83 88 90 92 95 102 111 120 130 141 151 159 165
209 210 212 213 215 216 218 220 222 225 228 230 231 229 231 235 241 245 246 249 253 257 261 260 255 255 261 271 277 279 282 289 301 312 320 325 330 338 347 355 359 1 3 5 10 14 17 17 19 22 23 19 14 12 14 15 17 21 26 28 28 34 40 44 51 58 62 61 61 62 68 75 82 89 96 100 103 107 112 119 128 138 150 161 170
212 213 215 215 217 218 220 222 223 225 229 232 232 230 231 236 241 244 245 247 251 255 257 255 253 257 264 271 276 279 283 288 296 306 312 316 321 329 338 347 353 356 358 359 4 10 13 13 14 15 16 15 10 8 8 6 6 8 12 17 21 24 27 32 37 43 51 56 56 54 55 59 70 84 102 116 123 128 134 139 146 153 160 169 177
215 217 218 219 219 221 223 224 224 226 229 231 232 231 232 237 242 244 247 248 252 255 257 255 257 263 267 270 273 279 285 289 294 299 304 308 313 320 326 332 338 345 349 349 351 358 4 5 6 4 4 4 3 2 1 358 356 357 359 2 5 7 9 12 15 17 23 27 28 32 31 26 22 11 217 194 188 184 182 182 185 188 191 193 196
219 220 221 222 221 222 223 224 225 226 227 228 230 233 236 241 245 248 250 251 253 255 257 259 263 267 269 269 271 277 284 288 291 296 300 304 306 309 314 318 320 323 330 334 336 341 349 352 353 351 350 352 354 354 352 348 346 345 345 346 347 348 346 342 343 348 352 347 335 316 303 298 287 276 265 254 244 235 229 225 221 219 219 220 219
222 222 222 223 223 222 222 224 225 226 228 230 232 237 241 245 249 252 254 255 257 257 258 262 265 268 270 270 271 275 281 285 287 291 295 300 301 300 302 305 306 306 309 317 324 329 333 336 337 338 340 342 344 345 344 342 340 336 331 329 329 330 330 327 323 322 322 319 312 305 299 291 280 270 262 256 250 245 243 241 239 237 237 236 235
224 224 224 225 224 223 223 223 226 229 232 234 238 242 247 251 253 254 256 256 257 258 259 263 266 269 272 273 273 276 281 284 284 286 290 294 296 296 297 299 300 300 300 302 309 315 320 322 325 328 329 331 333 336 337 337 335 329 321 318 317 315 315 315 312 307 306 302 297 295 296 295 290 281 271 264 257 251 248 246 245 244 244 244 244
227 227 227 227 227 226 225 225 227 230 234 238 241 246 250 254 255 256 257 258 259 259 260 263 265 268 271 273 275 276 279 281 283 285 287 289 291 292 295 297 298 297 295 293 296 303 310 314 318 320 320 321 325 327 329 331 331 326 319 315 312 307 303 305 304 299 295 292 289 287 287 289 291 288 281 275 268 262 257 253 250 249 248 248 247
229 230 230 230 229 228 228 229 230 233 235 238 242 247 250 253 255 256 257 257 258 260 261 262 264 267 270 273 275 277 277 278 281 283 284 285 288 290 291 292 292 293 292 291 291 295 299 304 309 313 313 315 317 319 320 320 320 319 315 312 309 304 299 297 297 295 290 285 284 284 283 283 285 286 284 281 276 272 268 263 259 256 254 252 251
231 232 233 233 231 230 230 232 235 237 239 241 243 247 250 252 254 256 259 259 258 259 260 263 265 267 270 273 275 277 276 277 278 280 282 284 287 290 290 289 289 290 290 289 289 290 293 297 301 304 306 307 309 311 310 309 309 308 307 306 304 300 297 293 292 292 288 284 282 281 280 280 280 281 282 281 279 277 274 270 267 264 261 259 257
233 234 234 234 234 233 234 236 239 241 243 245 247 250 252 253 255 256 259 260 261 261 262 265 268 269 271 273 275 276 275 275 276 278 280 283 285 287 288 288 288 289 289 287 286 287 288 291 295 297 299 300 301 303 304 304 304 303 302 302 300 298 295 293 291 290 288 284 282 280 278 278 277 277 278 279 279 277 276 274 271 269 266 264 262
235 235 235 235 236 237 238 239 241 243 245 247 250 253 255 257 258 258 259 260 262 264 266 269 272 273 274 274 275 276 275 274 275 278 280 281 282 283 285 286 286 287 287 286 285 285 284 286 289 293 295 296 297 298 300 300 300 300 300 299 299 297 295 292 290 288 287 285 283 281 279 278 276 275 274 276 276 276 275 274 273 271 269 268 267
236 237 237 237 238 239 240 242 243 245 247 250 252 255 257 259 260 260 260 261 263 265 267 270 273 275 275 276 275 275 275 275 275 277 279 279 281 283 284 285 285 285 285 285 285 283 282 283 286 289 291 293 295 295 296 297 296 296 296 296 296 296 295 293 290 287 286 285 283 281 280 278 277 275 274 274 275 275 274 274 273 271 270 269 268
238 239 240 239 239 240 242 243 245 247 249 252 254 256 257 259 261 261 262 263 265 267 269 271 273 275 275 275 275 274 274 274 275 277 278 279 281 283 285 286 285 285 285 285 283 281 281 283 284 286 288 291 292 293 294 294 294 293 292 293 293 294 294 293 291 289 286 285 283 282 280 278 276 275 274 274 274 274 274 273 273 271 270 268 268
239 240 241 240 240 241 243 245 247 249 251 254 256 255 256 258 260 261 262 264 266 267 269 271 273 275 276 275 274 274 273 273 274 276 277 279 281 282 284 285 285 285 285 284 282 281 282 283 284 285 287 289 290 292 293 293 292 291 290 289 291 292 293 291 290 289 287 285 284 283 281 279 276 273 272 272 273 273 273 273 273 272 271 269 268
239 240 240 240 241 243 245 247 250 252 253 255 255 255 256 258 260 261 262 264 266 268 269 271 273 275 276 276 275 273 272 271 273 274 275 277 278 280 281 282 283 284 284 283 282 282 282 283 283 284 285 287 289 291 292 291 291 290 289 289 289 291 292 291 289 288 287 286 285 284 283 281 278 275 272 272 272 272 272 273 274 273 272 270 269
239 239 239 240 242 244 247 249 251 253 254 255 254 254 256 258 261 263 264 265 267 269 270 271 273 275 276 276 275 273 271 272 273 274 275 276 276 277 278 278 279 280 281 280 280 281 281 281 281 283 284 286 287 288 289 289 289 290 290 290 290 291 291 291 289 288 287 286 285 285 283 281 279 277 274 273 273 272 272 272 272 272 271 270 270
239 239 240 241 242 245 248 250 252 254 255 255 255 256 257 259 262 264 265 266 268 269 270 271 273 274 275 275 274 273 273 274 275 275 275 276 275 275 276 277 278 278 279 279 280 280 279 279 280 282 284 286 286 286 287 287 288 289 290 290 290 291 291 290 288 288 287 287 286 286 285 282 280 278 276 274 273 273 272 272 271 270 270 269 269
238 239 239 240 242 244 247 249 252 254 255 256 257 258 259 261 263 264 265 266 268 269 270 271 272 272 273 274 275 274 274 274 274 275 275 275 275 276 276 276 277 278 278 278 279 279 280 280 281 283 284 286 286 286 286 286 286 288 289 289 289 289 289 288 287 286 287 287 286 286 285 283 281 280 277 275 274 273 272 272 271 269 269 269 268
239 240 241 241 243 245 247 249 251 253 254 255 257 259 260 262 264 264 265 266 267 268 269 270 271 271 271 273 274 274 274 274 274 274 274 274 275 275 276 276 278 278 279 278 278 279 280 281 282 284 286 286 286 285 284 285 286 287 287 287 287 287 286 287 286 286 287 287 286 286 285 284 283 281 279 277 275 274 273 272 270 269 268 268 268
240 242 243 244 245 246 248 249 251 252 253 255 258 259 261 263 264 265 266 266 267 268 269 271 271 271 271 271 272 273 272 272 273 273 273 274 274 274 275 276 276 278 279 280 280 280 281 282 283 284 285 286 286 285 285 285 286 286 285 285 285 285 285 286 286 286 286 287 287 285 284 285 285 283 280 279 277 276 275 274 272 270 269 267 267
241 242 244 245 246 247 248 249 250 251 254 257 259 261 263 264 265 266 267 268 268 269 270 271 272 272 272 272 271 271 271 271 271 271 272 273 274 274 275 275 275 276 278 280 280 279 280 281 281 282 283 284 284 284 285 285 286 286 284 283 283 283 284 285 285 285 286 286 286 285 284 285 285 284 282 281 279 277 276 275 274 273 271 269 267
241 241 242 244 245 247 248 250 251 252 255 259 261 263 265 266 266 267 268 269 270 270 271 271 270 270 272 272 270 269 269 270 270 271 271 272 272 273 274 274 274 275 276 278 278 278 279 280 281 281 282 283 283 283 283 284 285 285 284 282 282 283 284 284 284 285 285 285 285 284 284 285 285 284 284 282 281 279 278 276 275 274 273 272 270
241 241 242 244 245 246 248 251 253 254 256 260 263 265 267 268 268 268 269 269 270 270 271 271 270 270 270 269 268 268 268 269 270 270 270 270 270 272 273 274 274 275 276 278 277 277 279 280 281 281 283 284 284 284 283 283 283 283 283 282 282 282 283 283 283 284 284 284 284 283 283 284 284 284 284 283 282 281 280 278 277 275 274 274 273
241 241 241 243 245 247 249 252 254 255 256 261 265 268 269 270 270 270 270 270 271 272 272 272 272 271 269 267 267 267 268 269 270 270 269 269 269 270 272 273 274 276 279 279 279 278 279 280 280 280 282 284 284 284 284 284 283 281 281 282 282 282 282 282 283 284 285 285 285 284 282 282 283 283 283 283 282 281 281 280 278 277 277 276 275
240 241 241 242 245 249 251 253 255 256 258 263 268 270 271 272 272 271 270 271 272 274 274 273 272 272 269 267 267 267 267 267 267 269 270 270 270 270 271 273 275 278 280 281 281 281 280 280 280 280 281 282 283 283 284 285 284 283 280 280 281 281 282 282 283 285 285 285 287 287 285 283 284 283 282 282 282 281 281 280 280 280 279 278 277